SL-14 DEB

Satellite information

Favourite Embed

Satellite Type and Status

DEBRISIN ORBIT

Key statistics

Satellite SL-14 DEB at a glance.

Uptime

13998

Days in orbit

Revolutions

≈ 14.3

Per day

Orbit

LEO

Low Earth Orbit

Inclination

82.8

Latest

Satellite identification and parameters

Extended collection of information and parameters for SL-14 DEB.

Object identification

Identified? True

Debris? True

Object name: SL-14 DEB

International designator: 1987-068DL

Object number (NORAD): 39984

Object ID (CCSDS): 39984

Country: COMMONWEALTH OF INDEPENDENT STATES (CIS)

Current information (Y/N): Y

RCS size: SMALL

Orbital parameters

Period: 100.399 minutes

Inclination: 82.8278 deg

SMA: 7155.589 km

Apoapsis: 781.637 km

Periapsis: 773.272 km

RAAN: 68.67 deg

Eccentricy: 0.00058457

Argument of periapsis: 300.7939 deg

Mean anomaly: 59.2674 deg

Mean motion: 14.34282293 rev/day

Mean motion (dot): 0.00006647 rev/day2

B* drag term: 0.0023613439 1/REarth

Two-line elements (TLE)

Creation date: Dec. 13, 2025, 4:32 a.m.

Reference frame: TEME

Reference center: EARTH

Epoch: Dec. 12, 2025, 11:03 p.m. UTC

TLE line 0: 0 SL-14 DEB

TLE line 1: 1 39984U 87068DL 25346.96059619 .00006647 00000-0 23613-2 0 9997

TLE line 2: 2 39984 82.8278 68.6700 0005846 300.7939 59.2674 14.34282293596507

Live tracking on map

Real-time ground track for satellite SL-14 DEB.

In-orbit conjunctions

A list of the most updated potential collisions computed for object SL-14 DEB.

Target Orbit TCA Probability of collision Miss distance Type
DIAMANT B-P4 R/B LEO 2024-12-26 04:14:10 0.0001673671 620.0 (m) ROCKET BODY

Associated space launch

Second generation soviet meteorological satellite

SL-14 DEB was lifted into orbit during the mission ‘Tsiklon-3 | Meteor-2 16’, on board a Tsiklon-3 space rocket.

The launch took place on Aug. 18, 1987, 2:27 a.m. from 32/1.

For more information about the launch, click the button.

Launch to space Tsiklon-3 | Meteor-2 16
Tsiklon-3 | Meteor-2 16

Agency: N/A

Status: Launch Successful

Launch date: Aug. 18, 1987, 2:27 a.m. UTC

Rocket: Tsiklon-3

Launch pad: 32/1

Location: Plesetsk Cosmodrome, Russian Federation

...

Latest news about this satellite

There are no fresh news available about this satellite. Check back as we update our databases every day.


Newsletter sign-up

Weekly statistics, charts and insights to help you stay on top of the space industry.